Tracking 25693 objects as of 1-Jul-2022
HD Live streaming from Space Station
objects crossing your sky now

LEMUR 2 JINDRA

Track LEMUR 2 JINDRA now!
10-day predictions
LEMUR 2 JINDRA is classified as:


NORAD ID: 46909
Int'l Code: 2020-081E
Perigee: 561.9 km
Apogee: 571.8 km
Inclination: 36.9 °
Period: 95.9 minutes
Semi major axis: 6937 km
RCS: Unknown
Launch date: November 7, 2020
Source: United States (US)
Launch site: SRIHARIKOTA (SRI)
aabbcc
Your satellite tracking list
Your tracking list is empty




NASA's NSSDC Master Catalog

Two Line Element Set (TLE):
1 46909U 20081E   22182.57977916  .00004211  00000-0  31806-3 0  9994
2 46909  36.9086 139.4292 0007098 203.0041 157.0372 15.02327342 90313
Source of the keplerian elements: AFSPC